GFSNW_700_rhum_174.txt.gz
RH
4 4 11 16 27 50 59 56 27 22 17 23 33 30 32 31 33 34 39 37 42 45 48 48 48 43 39 38 43 50 54 56 93 90 89 76 88 81 65 80 39 43 40 45
4 4 6 18 32 57 64 58 55 35 23 19 25 33 27 27 31 33 37 39 39 42 47 46 45 40 36 32 42 48 50 47 71 78 82 76 68 64 60 61 49 33 30 38
5 4 4 18 28 67 69 65 60 44 33 18 19 26 24 21 19 28 33 36 37 35 35 42 40 35 35 33 31 36 43 43 37 43 31 44 74 39 54 59 35 28 26 34
5 5 4 16 30 70 72 66 56 50 40 18 18 26 25 24 20 18 26 30 31 25 27 24 35 26 28 30 32 38 42 38 33 34 34 33 34 32 38 38 30 26 23 28
6 7 5 18 31 72 72 67 53 52 46 30 17 19 22 26 25 18 18 19 20 22 23 26 25 24 19 19 21 27 34 28 26 32 35 36 31 28 32 27 22 23 28 28
7 7 5 17 39 69 74 65 52 56 47 35 22 15 18 21 24 27 31 27 26 28 30 30 34 37 37 29 20 16 18 22 21 20 19 20 21 22 24 22 24 20 20 18
9 8 6 20 55 77 73 66 59 62 55 44 31 17 14 17 18 19 21 20 21 21 20 21 23 34 32 33 35 26 22 22 27 30 28 38 29 24 20 21 23 23 22 21
13 11 8 32 64 85 74 72 69 68 60 53 37 28 15 14 14 15 18 18 16 15 15 16 19 29 30 32 32 33 32 33 32 36 29 33 25 25 22 19 24 19 17 17
15 13 12 62 78 89 79 75 77 71 64 58 52 41 28 22 21 19 16 17 18 16 16 18 18 20 21 28 22 26 31 31 27 23 22 22 33 26 25 28 29 29 29 28
18 14 22 100 97 97 86 82 85 77 70 61 56 54 51 46 36 24 20 22 23 22 21 21 21 22 25 24 22 25 23 24 24 22 21 23 29 28 26 23 28 27 27 29
18 18 79 100 100 100 92 92 95 82 74 65 66 64 59 54 52 46 42 40 33 30 30 27 24 24 23 25 23 23 23 24 24 25 26 27 30 28 27 28 29 30 32 35
41 51 89 100 100 100 98 100 96 82 69 70 72 72 71 72 69 64 59 46 35 31 30 29 26 26 27 27 26 29 32 32 30 29 29 30 30 30 31 34 36 36 38 41
66 68 71 100 100 99 99 100 95 79 74 74 70 69 68 68 69 70 69 66 61 53 47 44 40 37 36 35 34 35 36 36 34 34 35 34 36 38 40 41 40 41 43 43
84 75 82 98 100 100 100 100 91 83 76 66 58 56 60 65 61 61 67 71 74 73 72 68 60 52 49 45 44 46 45 43 41 43 44 44 44 41 40 40 42 43 42 41
97 90 92 100 100 100 100 100 86 83 73 69 54 51 48 49 54 58 58 63 73 77 77 74 66 62 58 54 53 49 49 50 49 49 48 44 43 42 42 44 46 46 45 45
86 98 90 89 84 100 100 100 86 79 66 65 55 50 44 45 44 45 46 49 58 72 75 71 70 65 68 67 62 58 59 53 55 49 42 39 36 38 40 40 42 41 42 43
100 76 78 93 92 98 99 99 82 79 70 73 68 57 44 46 48 50 48 48 56 78 82 80 82 79 72 67 60 62 61 63 63 50 54 48 39 38 40 40 40 40 41 43
99 100 99 99 99 98 97 99 94 85 79 93 93 83 73 62 57 59 57 56 65 81 86 85 83 82 78 73 67 67 66 64 62 66 58 45 36 32 31 33 35 38 44 48
96 98 97 95 97 95 95 99 91 86 91 100 98 94 96 80 71 68 69 81 89 92 91 90 89 88 86 78 72 68 70 72 73 70 58 40 33 31 32 35 40 41 43 47
94 99 100 98 98 100 94 99 98 99 99 99 92 94 97 88 81 74 87 89 88 93 90 93 100 94 86 83 78 78 68 67 76 59 43 38 37 32 27 29 37 41 43 48
98 99 76 87 97 99 100 98 97 97 96 92 97 98 98 97 85 86 92 96 97 96 92 94 98 84 75 73 70 71 63 67 59 50 44 27 22 25 32 42 42 42 42 46
96 95 95 94 96 96 96 96 96 93 87 88 92 92 96 96 90 92 95 96 95 98 98 92 88 76 73 72 70 69 68 63 57 51 40 38 45 51 53 52 50 48 47 48
95 96 96 95 96 96 95 95 97 97 94 96 92 96 98 97 97 97 96 95 97 96 94 95 87 75 73 75 77 73 69 65 61 53 45 54 54 54 54 55 57 58 59 59
89 94 96 95 96 96 96 97 95 96 93 89 93 99 100 97 96 96 96 97 96 97 97 98 85 86 86 85 81 78 71 68 63 60 68 70 67 59 55 54 54 58 57 58
71 69 82 94 96 96 96 96 96 96 96 96 96 96 96 97 96 96 96 96 100 99 97 100 100 100 96 88 83 80 82 80 77 70 55 44 45 48 49 51 53 56 61 76
57 50 52 71 87 96 95 97 93 94 95 96 96 96 96 96 97 97 96 96 99 92 100 99 100 99 100 98 92 88 87 89 89 88 83 80 75 61 51 52 57 64 76 87
20 40 72 79 100 99 99 100 100 96 87 95 95 94 95 96 92 93 95 100 95 96 95 99 99 98 92 88 86 82 80 85 87 81 70 59 51 46 38 36 47 61 77 92

GFSNW_700_rhum_177.txt.gz
RH
12 6 3 4 4 15 20 51 60 41 37 35 23 19 27 27 27 29 37 38 39 44 46 53 55 49 45 41 46 54 57 61 92 91 94 91 89 93 81 68 69 72 67 45
16 10 3 4 4 8 20 48 64 56 52 44 32 20 19 26 22 23 33 34 37 42 41 49 48 44 39 37 45 54 53 52 72 82 94 81 88 80 81 69 57 55 43 38
35 14 6 4 4 4 19 48 71 55 55 45 38 25 16 21 22 19 19 31 33 37 32 36 42 44 39 37 36 42 52 50 44 47 36 42 56 73 73 71 66 44 34 37
48 29 10 4 5 5 14 43 64 62 56 48 35 23 18 14 23 26 18 20 24 25 23 23 27 29 29 32 33 39 46 46 40 38 42 42 35 43 50 58 58 60 36 42
13 74 22 6 5 5 10 33 54 64 60 57 46 36 22 14 19 25 24 22 21 23 28 31 36 39 37 26 25 27 39 38 32 30 37 39 36 35 35 40 44 48 42 43
3 66 76 11 6 6 9 36 70 74 63 56 44 43 25 17 15 18 24 31 31 29 29 28 29 34 39 42 38 26 23 25 27 23 23 28 28 30 35 36 36 35 40 28
3 5 99 27 8 7 8 22 72 77 59 57 53 44 33 16 14 15 18 21 23 23 21 21 22 26 36 36 38 39 29 35 34 35 36 40 31 26 31 29 27 27 25 23
6 5 79 97 10 9 8 38 78 82 59 56 57 45 38 20 14 13 14 18 19 19 20 20 20 26 32 32 31 34 35 38 38 38 28 32 29 26 24 22 24 24 22 24
12 6 22 100 20 12 31 81 92 87 65 52 60 49 45 27 18 16 18 17 18 20 20 21 23 20 24 27 23 26 32 32 30 26 24 25 32 25 24 29 27 23 22 22
35 11 23 98 50 48 95 100 100 94 76 64 60 58 51 38 30 34 30 20 22 26 26 24 24 25 28 27 23 25 25 26 26 24 24 28 31 27 26 24 30 28 27 30
30 18 64 97 49 95 100 99 100 95 85 74 70 63 54 52 48 43 40 42 40 36 31 30 27 26 26 29 27 26 26 28 27 27 29 30 30 29 29 29 29 31 33 36
29 11 84 94 69 89 99 98 100 100 95 88 82 75 66 62 54 54 54 47 38 33 32 32 32 33 37 30 29 30 33 34 33 30 31 30 32 31 32 34 35 37 38 39
16 33 97 85 81 95 93 98 100 99 100 99 94 85 76 75 75 71 63 63 63 60 56 51 47 45 42 40 38 38 38 39 38 36 36 34 34 35 37 41 42 43 42 44
82 88 74 79 82 97 79 98 98 99 99 99 92 90 83 78 74 74 73 74 71 73 73 72 70 66 60 56 54 54 52 51 46 43 42 44 43 42 43 43 41 41 43 45
68 73 58 75 83 98 83 99 99 98 99 95 87 79 75 73 72 69 67 71 69 65 67 71 78 75 69 64 62 58 56 54 51 50 51 50 50 48 47 47 45 45 46 48
52 98 82 87 98 98 96 100 99 99 99 97 87 80 71 65 65 69 60 45 42 46 50 57 62 71 73 70 65 62 60 58 52 52 54 50 45 43 40 41 44 44 43 43
85 84 92 78 81 84 99 90 72 97 98 93 79 67 59 52 47 45 44 44 45 49 53 53 61 68 84 84 73 66 67 65 62 62 63 53 54 54 45 41 43 44 44 45
94 97 97 87 91 97 90 80 87 96 98 94 83 71 59 54 50 51 48 47 50 53 65 65 71 84 91 92 73 69 71 70 69 67 63 69 70 52 38 35 35 38 40 43
97 94 89 91 97 94 60 98 99 96 92 87 81 73 66 60 56 59 59 64 71 76 80 82 88 92 90 81 77 75 75 73 71 74 74 72 57 42 32 30 29 31 35 41
96 94 100 100 83 91 73 98 98 97 90 82 78 71 70 70 71 75 74 79 81 96 94 96 100 100 92 89 89 89 87 81 75 74 72 72 45 42 37 29 26 26 35 41
98 98 99 95 100 99 98 98 95 91 100 89 82 65 68 68 78 88 83 83 84 90 90 95 100 87 75 76 75 76 77 77 77 69 69 51 42 29 27 31 38 43 46 47
97 97 97 99 98 96 97 99 95 86 87 88 79 73 81 90 93 93 86 84 82 90 98 98 98 78 75 72 71 72 71 70 68 62 56 49 34 36 49 52 54 52 49 48
96 96 96 96 95 96 96 91 94 90 91 99 88 92 94 96 100 100 99 88 96 98 95 98 87 77 70 76 80 79 78 73 67 63 56 47 42 53 55 56 57 58 59 59
94 95 95 96 96 96 93 86 82 87 91 93 94 96 89 100 100 98 97 97 98 98 98 97 84 82 83 88 89 86 80 79 77 66 62 61 65 67 62 46 38 37 37 37
94 95 96 96 96 97 96 92 91 92 92 97 99 100 98 97 96 96 96 95 99 98 97 95 92 97 100 98 97 97 96 95 90 83 78 67 56 52 54 61 66 63 56 58
78 84 94 96 96 98 99 98 97 96 96 96 96 96 96 96 96 96 96 97 97 97 95 99 99 98 97 96 96 96 98 98 93 90 88 87 84 79 69 55 46 41 39 40
35 64 72 93 96 95 90 88 88 91 95 96 96 95 96 96 96 96 96 97 97 97 96 100 99 98 98 98 94 88 86 86 86 88 86 81 73 59 45 40 35 30 25 27

GFSNW_700_rhum_180.txt.gz
RH
15 44 22 13 6 4 4 4 18 33 44 48 45 40 36 29 33 36 31 29 31 38 43 42 48 52 51 43 42 56 62 69 79 91 91 91 96 98 93 70 66 85 92 72
2 35 49 21 12 4 4 5 10 27 39 54 49 49 42 32 28 28 26 24 25 33 39 41 42 46 43 44 41 54 61 62 63 77 71 76 74 78 94 90 74 60 64 38
1 2 39 52 19 6 5 6 16 18 27 35 48 51 42 31 27 25 25 22 21 27 30 27 29 34 38 35 41 42 53 58 58 49 43 39 60 68 79 92 75 62 55 40
1 1 2 74 49 12 7 7 12 18 27 40 48 50 49 42 30 27 26 23 20 20 26 26 27 32 35 32 31 40 47 45 45 43 38 44 44 44 68 77 79 58 50 51
1 1 1 20 99 34 10 7 13 21 27 41 52 51 44 44 32 27 24 22 26 25 24 30 34 34 40 44 27 29 30 42 38 28 28 38 38 41 40 52 62 51 56 58
2 3 1 8 99 100 33 9 10 19 33 46 57 43 43 47 36 24 21 21 26 25 25 25 26 28 32 43 45 45 36 28 30 27 25 26 30 24 34 39 40 42 43 39
3 3 3 2 35 100 98 15 11 30 31 44 41 44 46 48 34 28 24 20 18 18 17 17 18 21 25 39 42 42 42 38 44 38 41 42 35 27 31 33 33 34 37 35
3 4 5 4 2 92 99 86 11 25 50 47 46 54 52 50 46 28 20 23 17 17 17 17 19 23 31 32 37 37 41 43 45 43 41 27 29 25 29 31 30 27 27 28
2 3 4 8 3 19 100 99 32 23 62 54 46 67 59 54 50 32 23 19 17 16 19 20 24 25 25 26 27 28 34 39 41 34 35 29 32 27 26 27 29 28 25 26
4 3 4 4 5 4 79 98 92 31 80 63 69 65 55 53 52 37 24 20 24 21 24 26 24 25 28 29 25 26 30 32 35 31 28 31 30 29 31 28 31 27 24 27
4 5 4 4 6 5 23 99 97 22 99 83 91 84 57 56 54 41 31 33 30 28 35 30 28 27 26 30 28 29 28 31 29 29 30 36 29 28 30 30 29 30 31 34
47 52 38 9 7 10 48 99 94 47 98 89 96 86 71 64 55 46 40 39 40 40 33 30 28 29 37 38 31 32 34 35 35 33 32 32 33 29 29 30 31 35 37 39
17 17 31 43 6 15 15 98 94 77 99 96 95 87 76 69 58 54 49 48 44 47 48 45 49 48 44 42 40 43 42 42 43 41 36 34 34 34 36 37 39 41 44 44
34 45 51 60 12 21 31 98 86 91 77 98 89 97 87 78 69 60 66 63 60 62 66 66 68 65 61 57 53 56 56 55 52 48 41 39 42 42 42 44 46 46 45 47
25 75 92 39 26 35 55 96 90 100 94 96 87 90 99 89 82 81 75 73 78 74 68 66 66 63 68 67 66 57 53 54 54 52 50 50 49 49 48 47 47 48 48 48
71 82 59 45 36 51 95 96 95 98 100 99 95 97 97 96 92 84 89 82 78 65 49 47 50 45 66 68 63 54 54 56 56 54 52 54 58 53 46 45 44 42 45 48
83 76 91 55 57 98 98 97 93 91 98 95 99 99 98 94 89 84 85 77 55 52 50 44 47 54 68 68 64 64 68 63 63 62 62 62 64 55 56 60 52 41 42 45
98 97 95 97 97 97 99 97 95 98 100 100 97 96 95 84 74 68 59 52 53 54 55 46 48 62 76 78 65 68 76 79 78 72 68 68 63 68 68 63 40 35 36 37
97 97 97 97 96 97 94 98 92 98 98 97 96 77 72 62 59 58 54 52 53 56 55 54 70 74 76 68 74 72 79 78 76 74 70 67 73 69 61 43 33 32 32 31
97 98 97 96 97 96 98 98 98 99 98 90 93 83 64 60 57 63 56 60 65 71 68 68 78 72 67 73 81 85 82 85 89 86 86 80 75 72 51 42 38 30 25 25
97 97 97 99 94 98 94 96 97 96 97 86 81 75 66 63 60 58 64 74 72 75 74 78 96 73 60 64 68 78 85 88 90 88 86 84 76 52 38 32 33 39 43 45
96 85 85 100 100 97 97 92 91 87 69 60 56 61 63 63 67 71 77 76 75 81 86 88 93 64 61 65 65 62 65 70 74 69 62 56 51 43 36 46 52 54 54 51
97 97 98 98 95 96 97 96 92 82 73 67 54 58 70 74 83 97 90 85 89 90 95 88 79 71 68 61 61 65 73 76 74 68 63 60 52 48 56 59 61 62 63 62
95 95 95 96 95 94 100 99 90 82 76 67 68 71 80 97 100 100 95 100 100 100 99 85 82 80 74 72 78 83 83 81 77 72 70 66 65 70 68 62 49 40 41 51
94 96 96 95 93 99 99 98 96 94 90 88 86 86 84 98 97 97 97 98 97 97 99 89 87 89 90 95 98 96 94 93 95 96 88 76 70 65 62 65 69 68 63 59
93 94 96 96 96 96 98 96 94 96 96 96 99 98 96 97 96 95 96 97 97 94 89 95 98 100 98 96 96 97 97 96 95 96 95 91 86 82 78 73 67 58 46 39
75 96 96 96 96 96 96 96 96 96 97 96 97 97 96 96 96 96 96 96 98 99 100 100 98 98 97 96 96 96 95 94 94 91 85 83 79 78 76 72 67 61 54 46

GFSNW_700_rhum_183.txt.gz
RH
0 1 3 30 50 22 12 6 6 9 14 31 43 40 39 44 45 36 31 33 30 35 60 58 54 55 59 41 45 55 75 78 72 60 82 74 85 88 97 98 76 70 79 55
0 1 2 6 81 55 21 9 6 7 10 29 28 31 37 48 49 39 27 24 32 28 37 53 53 43 34 39 41 60 65 68 60 52 75 71 69 62 76 95 85 74 60 59
1 1 1 3 73 100 60 16 12 9 6 7 11 36 30 44 34 27 26 23 25 28 26 34 33 28 30 34 34 40 49 57 64 49 45 52 66 80 66 100 94 80 74 62
1 1 1 1 11 100 94 56 16 29 14 25 30 50 51 47 48 46 40 25 20 27 36 33 35 29 32 31 41 34 52 53 54 45 37 35 39 51 68 70 85 68 50 56
1 2 2 1 2 47 96 100 68 22 18 45 21 32 28 29 46 49 43 29 24 30 28 32 42 39 35 35 43 35 43 44 40 23 29 26 30 42 55 69 84 87 81 74
1 2 3 3 3 17 84 99 100 85 23 62 26 40 19 31 54 46 41 26 19 22 30 30 27 26 26 28 36 46 51 48 51 47 30 39 41 35 39 49 45 56 50 50
2 2 3 5 4 5 69 100 100 100 82 31 71 48 54 40 53 51 46 34 26 18 24 26 20 18 22 22 29 43 46 52 59 51 49 44 35 26 31 36 38 42 44 42
2 2 3 4 6 7 11 95 100 99 99 99 59 81 40 26 51 64 58 46 27 21 19 29 21 25 28 27 30 39 42 47 66 61 38 29 36 25 28 28 31 29 35 38
3 5 3 2 3 5 9 12 96 99 98 91 94 78 71 42 53 70 58 50 36 22 21 31 38 29 30 32 26 27 34 42 50 49 40 26 33 24 26 25 33 26 27 27
24 24 10 6 4 4 5 5 22 99 99 94 99 76 68 50 54 72 59 52 39 25 24 29 39 34 24 35 34 26 33 40 47 52 44 32 29 29 30 33 33 21 24 29
46 30 11 8 5 7 4 4 11 50 98 100 99 90 64 69 64 75 64 54 42 26 28 31 31 26 31 26 27 28 32 42 44 36 42 42 30 28 33 32 30 29 28 31
58 42 33 44 50 48 57 7 12 45 98 98 100 99 59 45 64 63 62 56 38 33 32 32 34 28 27 31 36 35 34 34 37 35 36 31 30 29 30 31 32 34 36 37
57 54 48 61 65 67 78 44 14 46 50 98 98 98 81 37 80 86 74 56 41 38 39 39 32 38 44 44 40 38 38 39 40 42 40 34 33 30 30 32 35 38 40 43
62 59 68 47 28 18 27 93 26 37 54 99 97 98 92 52 76 77 70 56 46 43 38 36 44 52 59 52 49 51 50 51 52 51 46 38 35 35 36 37 40 42 46 46
68 66 55 40 27 16 32 85 41 24 50 98 85 99 72 78 89 88 68 57 55 48 50 54 60 64 63 58 59 61 60 57 55 55 54 51 46 49 50 50 50 48 48 49
73 78 73 27 67 97 100 100 62 30 51 98 98 87 74 84 96 85 89 65 59 63 64 72 72 64 49 42 39 34 46 52 54 56 56 54 53 55 60 55 47 47 47 46
81 97 77 61 97 98 96 61 50 59 65 88 97 97 67 90 98 96 97 82 93 92 89 82 66 51 47 41 39 37 45 54 55 61 60 57 56 59 64 57 58 60 52 44
96 97 78 52 59 65 55 55 75 67 80 99 97 94 99 100 97 98 97 97 98 98 88 60 50 54 54 40 29 37 45 54 61 70 65 66 67 67 67 67 69 66 43 39
96 97 93 87 81 61 63 68 90 87 97 97 97 96 97 98 100 98 98 99 98 93 66 56 56 56 48 32 40 51 58 64 68 74 76 76 73 70 72 69 55 41 37 36
92 97 94 97 98 74 91 91 95 96 96 97 91 96 97 100 99 98 98 97 90 61 59 60 58 50 39 39 45 57 68 75 77 77 79 80 74 73 75 74 59 43 39 33
98 98 97 94 96 98 97 96 97 97 97 96 99 99 81 98 97 95 86 86 77 70 73 73 67 49 37 37 43 55 66 75 84 86 88 87 84 83 85 77 46 36 37 43
97 97 97 97 97 96 96 97 97 97 96 98 95 97 96 97 93 91 87 84 78 76 72 76 63 35 38 44 48 56 62 60 59 67 72 72 80 82 60 43 39 45 52 54
97 97 96 96 96 96 97 95 95 95 97 95 97 95 97 99 94 86 82 80 77 76 86 79 48 45 45 52 60 64 64 66 68 72 69 62 57 55 48 45 53 56 58 60
95 95 96 95 96 88 90 86 89 93 99 96 93 79 78 76 82 84 81 90 95 93 92 72 62 62 61 68 75 72 71 77 80 75 70 66 63 62 64 66 63 54 43 44
94 96 95 94 97 100 95 90 88 80 70 85 100 94 82 84 90 84 84 94 93 95 98 79 79 82 87 90 86 82 88 88 84 82 83 88 86 73 64 64 66 69 70 67
95 95 96 96 94 93 93 95 100 96 95 98 100 100 98 97 94 88 90 90 93 90 89 88 93 100 100 100 99 99 98 96 96 98 95 94 91 86 78 65 59 55 57 60
96 97 96 96 96 96 96 96 95 95 97 99 95 96 95 96 96 100 100 99 91 88 91 95 96 96 96 96 99 99 98 97 96 94 93 93 90 78 70 67 63 60 62 62

GFSNW_700_rhum_189.txt.gz
RH
5 2 3 2 1 1 33 68 53 40 32 22 15 13 18 19 28 28 38 42 42 30 32 31 34 35 48 52 51 46 49 67 82 39 49 60 67 73 72 95 87 92 97 74
3 3 5 11 2 1 10 91 58 39 50 39 21 18 21 22 20 27 27 37 45 42 41 37 31 38 35 34 44 45 49 68 65 36 54 58 67 62 66 69 99 98 97 69
2 6 11 10 1 1 28 30 68 60 58 53 54 32 20 16 24 28 25 44 47 51 49 40 28 31 44 37 36 45 55 53 50 47 36 41 48 50 62 70 88 81 84 77
1 2 7 5 3 2 30 41 98 69 98 70 67 73 58 33 65 72 49 57 47 58 56 47 36 45 51 50 43 42 55 45 43 47 44 45 40 48 49 50 62 87 68 71
1 2 2 5 8 4 6 54 69 96 100 100 90 87 67 42 42 56 42 38 34 64 50 40 35 36 33 40 41 44 48 50 49 28 31 44 48 40 38 40 49 58 58 62
1 2 2 3 10 10 11 19 94 99 100 100 100 92 89 84 70 40 68 71 75 60 52 54 61 46 37 36 37 50 60 62 62 41 34 40 37 28 33 37 46 53 58 55
2 2 2 3 10 13 15 16 26 93 93 91 94 88 98 92 85 90 80 87 92 61 64 61 65 60 41 22 24 41 48 49 63 51 42 50 34 30 32 37 38 44 50 45
2 3 3 4 4 19 36 21 27 33 89 100 95 96 99 97 99 90 84 87 74 64 58 54 53 58 32 32 31 34 40 52 62 58 61 39 36 27 28 30 34 36 47 51
3 4 20 20 13 9 72 63 47 43 34 26 22 99 98 99 96 94 82 78 65 57 48 74 76 55 33 30 30 32 40 62 68 59 59 47 32 28 29 33 38 28 32 34
39 62 35 19 21 29 40 43 49 65 57 17 22 38 88 91 97 100 92 89 88 89 88 91 82 64 50 31 27 30 42 66 57 58 52 38 34 31 31 38 35 26 28 31
100 81 51 52 55 59 70 60 55 59 49 34 44 20 12 44 82 98 100 100 97 93 85 77 68 59 48 36 31 30 30 32 43 49 56 46 33 30 28 28 27 22 27 30
85 80 73 71 65 63 64 65 57 56 59 43 40 23 20 14 17 43 97 99 90 94 75 76 66 50 40 35 35 32 36 30 38 39 35 37 34 30 29 30 31 31 29 31
72 73 68 60 56 55 56 53 55 54 47 43 30 21 50 39 26 29 89 98 96 96 99 94 72 62 48 41 36 36 35 35 38 39 41 42 41 38 30 31 32 35 37 39
78 77 63 45 39 36 37 43 44 50 95 94 28 64 58 57 54 36 63 80 74 96 99 100 95 85 68 51 44 40 37 37 43 44 50 62 53 47 33 31 31 35 48 70
47 48 46 37 33 26 23 28 38 49 100 89 90 91 75 78 71 51 38 20 10 76 98 98 95 92 90 72 56 46 45 51 58 64 63 56 50 50 45 35 34 37 43 48
37 36 35 33 26 25 17 34 34 54 71 100 97 79 90 92 87 72 63 56 35 57 93 95 91 91 97 85 59 48 45 55 60 68 63 57 51 52 53 51 46 50 56 52
27 27 29 24 21 19 26 62 71 93 96 97 98 96 90 98 91 78 78 70 57 85 98 95 99 100 91 90 80 56 54 55 66 58 57 53 51 51 54 53 52 54 59 57
19 18 20 18 16 40 72 84 96 98 97 97 96 94 90 100 90 79 78 82 94 75 66 84 92 98 97 94 78 64 53 65 56 47 40 48 55 59 60 58 58 58 66 64
10 9 13 49 79 94 92 98 83 78 97 97 96 91 95 98 93 82 76 95 100 98 97 100 99 99 96 84 77 69 61 62 74 45 41 48 56 64 67 62 62 70 69 66
12 74 87 97 97 94 98 89 99 97 96 98 94 93 99 83 81 73 75 98 97 94 96 98 96 93 75 79 76 81 73 92 58 49 51 55 64 73 74 72 75 73 70 68
72 95 95 97 95 95 97 95 96 96 96 95 90 94 94 86 70 90 88 97 96 98 93 96 96 97 82 76 80 81 91 60 58 63 64 64 69 74 80 81 78 76 75 78
93 97 95 97 98 96 93 77 68 66 77 79 72 80 84 90 78 79 95 96 97 97 84 99 92 79 77 74 75 77 91 77 74 73 74 74 74 80 85 91 90 88 86 66
96 96 96 96 96 97 92 97 96 99 96 85 71 79 68 80 91 94 95 91 96 98 100 98 85 78 83 94 90 96 86 74 76 77 81 84 77 70 73 88 94 78 53 47
97 96 96 96 97 100 95 95 97 98 100 100 100 90 97 77 83 90 97 96 97 97 97 99 100 100 99 100 98 92 83 77 83 78 73 69 69 68 67 62 58 57 58 61
96 96 96 96 96 96 96 98 100 98 97 96 97 97 98 97 97 94 97 96 97 96 97 96 96 97 97 98 81 82 97 97 85 71 75 76 72 72 68 65 68 66 59 55
97 97 98 96 96 96 96 96 96 96 97 97 96 96 96 96 97 98 96 96 96 96 97 97 95 94 95 94 93 96 97 92 88 84 84 83 82 78 74 69 65 68 74 65
96 97 97 96 97 96 96 96 96 96 97 97 97 94 96 94 93 95 95 96 96 94 89 95 100 100 100 100 100 100 100 95 91 94 96 88 76 80 85 91 94 90 70 68

GFSNW_700_rhum_192.txt.gz
RH
5 4 11 7 2 4 6 5 42 44 36 29 22 18 20 22 21 31 39 26 28 43 45 46 44 33 39 46 53 48 45 55 62 36 39 50 63 76 96 87 74 88 91 75
1 6 3 4 4 5 9 16 61 22 41 28 28 29 25 24 21 21 41 35 20 42 52 54 44 37 34 43 47 48 52 58 63 35 40 44 57 69 76 76 74 87 93 70
0 1 4 1 6 11 16 20 34 26 22 21 39 61 48 44 31 22 31 32 52 60 56 54 52 43 43 48 53 52 54 56 50 47 38 47 53 51 56 67 79 78 75 63
1 1 1 1 3 11 16 39 47 49 49 72 73 83 57 49 43 72 74 68 56 68 70 60 51 46 45 46 44 48 55 56 49 47 37 43 41 44 50 60 57 78 49 77
1 1 1 1 1 7 16 32 88 61 68 70 83 96 69 66 53 56 64 62 44 77 86 74 78 54 60 62 52 52 57 55 58 36 32 42 44 33 30 33 40 49 51 54
1 2 2 2 2 6 17 19 56 97 85 70 90 96 92 86 71 61 74 84 87 80 82 85 77 72 60 67 67 65 67 69 68 44 32 40 38 34 30 33 40 48 55 52
2 2 2 3 3 4 24 29 28 48 85 82 94 98 100 100 96 92 69 91 90 73 84 79 69 59 47 39 32 46 55 65 70 60 45 48 31 34 28 31 33 43 43 45
2 2 2 3 4 7 19 33 37 36 36 29 31 56 100 95 65 72 64 73 69 86 89 86 74 47 21 30 32 33 49 66 67 61 67 37 32 28 27 29 31 35 48 51
3 3 4 5 10 46 62 48 60 51 50 30 18 16 37 48 79 67 59 51 76 86 88 89 86 73 42 38 34 33 39 64 68 73 70 52 31 35 31 32 36 27 31 33
6 37 70 80 85 82 90 53 42 58 48 39 31 23 24 27 36 78 81 80 79 92 89 90 95 96 77 52 38 36 42 67 65 76 75 37 34 34 30 33 31 24 27 32
50 94 100 100 99 97 85 75 70 74 64 48 72 50 33 28 36 32 79 93 86 92 90 96 95 92 71 58 49 42 38 36 46 73 74 52 33 35 30 27 27 20 27 30
43 81 97 92 80 69 83 83 74 73 78 58 53 53 49 52 34 40 38 48 87 97 93 96 91 80 63 50 49 40 42 34 34 36 35 35 38 57 37 35 30 25 28 31
62 57 63 69 74 74 74 72 69 65 64 56 50 44 33 41 31 35 51 28 24 49 99 97 96 96 75 62 53 46 41 38 41 38 35 36 39 62 78 48 38 33 35 36
68 72 78 79 78 66 56 50 43 41 43 42 43 27 25 29 36 32 38 42 45 22 70 97 98 100 88 76 70 59 52 50 43 40 37 39 41 70 79 50 47 50 59 59
47 45 44 46 52 58 57 43 35 29 24 26 29 28 33 35 59 65 46 86 67 47 39 64 99 96 100 96 83 69 56 49 51 52 50 55 77 73 53 46 34 36 40 48
30 31 32 36 39 39 37 37 36 34 26 27 28 29 34 37 56 88 69 98 89 86 64 88 98 99 98 98 90 65 55 60 59 49 49 63 61 62 57 52 46 38 39 48
20 22 22 20 19 23 29 30 33 33 42 100 100 98 70 56 86 94 94 96 96 96 88 68 72 84 84 60 79 83 69 55 62 68 62 58 67 63 61 53 53 51 53 58
22 19 16 13 12 12 13 7 12 17 28 53 97 86 68 77 94 91 94 97 90 96 94 83 92 83 96 98 79 67 64 61 60 62 64 77 74 65 60 56 55 56 58 59
17 14 12 9 10 27 22 34 58 74 99 98 92 73 92 92 100 99 99 99 99 96 92 76 92 91 96 59 69 93 74 63 52 58 60 81 70 62 61 61 60 61 60 63
17 13 11 32 66 97 97 92 97 97 97 96 96 97 96 95 92 92 94 96 96 94 84 86 100 70 43 54 70 90 70 61 55 59 67 73 73 70 64 65 65 67 65 73
15 13 35 70 82 95 98 96 97 97 97 96 99 99 96 96 96 96 97 96 96 96 88 96 96 84 67 58 52 50 55 57 73 75 72 75 89 70 72 75 76 74 77 69
28 41 75 80 93 96 97 96 93 90 92 96 94 97 94 96 96 93 97 94 94 91 92 98 90 42 57 78 78 86 83 80 86 92 94 96 79 79 79 80 81 82 79 80
36 85 97 96 96 96 97 90 79 86 94 100 89 90 94 97 99 96 95 96 92 95 94 90 83 78 77 77 63 75 76 83 81 83 96 91 82 85 86 84 90 94 95 94
59 97 96 96 96 98 97 100 99 91 85 93 98 93 97 97 96 94 97 96 94 80 93 86 91 85 84 85 84 80 89 89 89 84 96 92 83 88 86 80 83 93 95 71
72 97 96 96 93 96 95 97 96 96 96 96 96 97 97 97 96 88 76 93 96 96 96 93 99 100 100 98 100 100 100 100 98 98 97 98 95 79 75 73 70 65 65 68
79 97 98 95 95 98 98 96 96 96 95 96 96 97 95 96 96 96 96 95 95 96 96 96 96 97 97 97 98 97 97 96 97 96 96 87 79 77 71 67 67 70 70 66
98 97 96 98 98 100 99 96 95 96 96 96 97 97 97 97 97 94 95 95 96 94 96 96 96 96 96 96 96 96 96 98 96 93 92 93 91 88 85 78 76 71 70 77